This is the latest recevied weather packets stored in our database for station/object KJ5EHN. If no packets are shown the sender has not sent any weather packets the latest 1 day(s).
| Time | Temp. | Humidity | Pressure | Rain* | Wind** | Luminosity | Snow |
|---|---|---|---|---|---|---|---|
| 1777989020 | 23.33° C | 81% | 1003.9 hPa | 0 mm | 2.24 m/s, 338° | - | - |
| 1777988716 | 23.33° C | 81% | 1004 hPa | 0 mm | 0.89 m/s, 330° | - | - |
| 1777988413 | 23.33° C | 81% | 1004.2 hPa | 0 mm | 2.68 m/s, 187° | - | - |
| 1777988110 | 23.33° C | 81% | 1004.2 hPa | 0 mm | 1.79 m/s, 194° | - | - |
| 1777987806 | 22.78° C | 81% | 1004.3 hPa | 0 mm | 1.79 m/s, 197° | - | - |
| 1777987503 | 22.78° C | 81% | 1004.3 hPa | 0 mm | 2.68 m/s, 340° | - | - |
| 1777987200 | 22.78° C | 82% | 1004.4 hPa | 0 mm | 1.79 m/s, 162° | - | - |
| 1777986896 | 22.78° C | 82% | 1004.2 hPa | 0 mm | 2.68 m/s, 211° | - | - |
| 1777986595 | 22.78° C | 82% | 1004.2 hPa | 0 mm | 1.34 m/s, 236° | - | - |
| 1777986293 | 22.78° C | 82% | 1004.2 hPa | 0 mm | 1.79 m/s, 342° | - | - |
| 1777985990 | 22.78° C | 82% | 1004.3 hPa | 0 mm | 1.79 m/s, 109° | - | - |
| 1777985687 | 22.78° C | 82% | 1004.3 hPa | 0 mm | 2.68 m/s, 282° | - | - |
| 1777985383 | 22.78° C | 83% | 1004.2 hPa | 0 mm | 0.89 m/s, 255° | - | - |
| 1777985080 | 22.22° C | 83% | 1003.9 hPa | 0 mm | 1.79 m/s, 253° | - | - |
| 1777984777 | 22.22° C | 83% | 1003.7 hPa | 0 mm | 1.79 m/s, 88° | - | - |
| 1777984473 | 22.22° C | 83% | 1003.7 hPa | 0 mm | 0.89 m/s, 333° | - | - |
| 1777984169 | 22.22° C | 84% | 1003.6 hPa | 0 mm | 1.79 m/s, 346° | - | - |
| 1777983867 | 22.22° C | 84% | 1003.9 hPa | 0 mm | 2.68 m/s, 260° | - | - |
| 1777983563 | 22.22° C | 84% | 1003.8 hPa | 0 mm | 1.34 m/s, 317° | - | - |
| 1777983261 | 21.67° C | 85% | 1003.7 hPa | 0 mm | 1.79 m/s, 270° | - | - |
| 1777982956 | 21.67° C | 85% | 1003.6 hPa | 0 mm | 0.89 m/s, 319° | - | - |
| 1777982653 | 21.67° C | 86% | 1003.6 hPa | 0 mm | 1.79 m/s, 8° | - | - |
| 1777982352 | 21.67° C | 86% | 1003.6 hPa | 0 mm | 0.89 m/s, 257° | - | - |
| 1777982049 | 21.67° C | 86% | 1003.8 hPa | 0 mm | 1.79 m/s, 124° | - | - |
| 1777981747 | 21.67° C | 86% | 1003.6 hPa | 0 mm | 2.68 m/s, 230° | - | - |
* Rain latest hour (hover to see other rain measurements)
** Current wind speed in m/s (hover to see current wind gust speed)